Chatham, MA

6:06 PM EDT on April 23, 2017 (GMT -0400)
Chatham Municipal

Weather History for KCQX - October, 2012

Change the Weather History Date:

Wednesday, October 17, 2012

  Actual Average Record
Temperature  
Mean Temperature 46 °F -  
Max Temperature 57 °F 57 °F 75 °F (2016)
Min Temperature 37 °F 43 °F 37 °F (2012)
Degree Days  
Heating Degree Days 19    
Moisture  
Dew Point 41 °F    
Average Humidity 80    
Maximum Humidity 93    
Minimum Humidity 60    
Precipitation  
Precipitation 0.00 in - - ()
Sea Level Pressure  
Sea Level Pressure 29.96 in    
Wind  
Wind Speed 1 mph (NW)    
Max Wind Speed 5 mph    
Max Gust Speed -    
Visibility 10 miles    
Events      
Averages and records for this station are not official NWS values.
T = Trace of Precipitation, MM = Missing Value Source: NWS Daily Summary

Daily Weather History Graph

Daily Weather History Graph

Search for Another Location

Airport or City:

Trip Planner

Search our weather history database for the weather conditions in past years. The results will help you decide how hot, cold, wet, or windy it might be!

Date:

Astronomy

Oct. 17, 2012 Rise Set
Actual Time 6:54 AM EDT 5:54 PM EDT
Civil Twilight 6:26 AM EDT 6:22 PM EDT
Nautical Twilight 5:54 AM EDT 6:55 PM EDT
Astronomical Twilight 5:22 AM EDT 7:27 PM EDT
Moon 9:27 AM EDT (10/17) 7:25 PM EDT (10/17)
Length of Visible Light 11h 56m
Length of Day
10h 59m
Waxing Crescent, 7% of the Moon is Illuminated
Oct 17
Waxing Crescent
Oct 21
First Quarter
Oct 29
Full
Nov 6
Last Quarter
Nov 13
New

Hourly Weather History & Observations

Time (EDT) Temp. Windchill Dew Point Humidity Pressure Visibility Wind Dir Wind Speed Gust Speed Precip Events Conditions
12:52 AM 41.0 °F 39.0 °F 39.0 °F 93% 29.87 in 10.0 mi NNW 3.5 mph - N/A   Clear
1:52 AM 39.9 °F - 37.0 °F 89% 29.89 in 10.0 mi Calm Calm - N/A   Clear
2:52 AM 39.9 °F - 37.9 °F 93% 29.90 in 10.0 mi Calm Calm - N/A   Clear
3:52 AM 41.0 °F - 37.9 °F 89% 29.89 in 10.0 mi Calm Calm - N/A   Clear
4:52 AM 39.9 °F - 37.0 °F 89% 29.91 in 10.0 mi Calm Calm - N/A   Clear
5:52 AM 41.0 °F - 37.0 °F 86% 29.92 in 10.0 mi Calm Calm - N/A   Clear
6:52 AM 37.9 °F - 35.1 °F 89% 29.94 in 10.0 mi Calm Calm - N/A   Clear
7:52 AM 42.1 °F - 39.9 °F 92% 29.95 in 10.0 mi Calm Calm - N/A   Clear
8:52 AM 50.0 °F - 42.1 °F 74% 29.96 in 10.0 mi Variable 3.5 mph - N/A   Clear
9:52 AM 53.1 °F - 41.0 °F 64% 29.96 in 10.0 mi Variable 3.5 mph - N/A   Clear
10:52 AM 55.0 °F - 42.1 °F 62% 29.96 in - Variable 3.5 mph - N/A   Clear
11:52 AM 55.9 °F - 42.1 °F 60% 29.96 in 10.0 mi North - - N/A   Clear
12:52 PM 55.9 °F - 43.0 °F 62% 29.94 in 10.0 mi WNW 4.6 mph - N/A   Clear
1:52 PM 55.9 °F - 43.0 °F 62% 29.94 in 10.0 mi Variable 4.6 mph - N/A   Clear
2:52 PM 55.9 °F - 44.1 °F 64% 29.95 in 10.0 mi WNW 4.6 mph - N/A   Clear
3:52 PM 55.0 °F - 42.1 °F 62% 29.95 in 10.0 mi Calm Calm - N/A   Clear
4:52 PM 54.0 °F - 43.0 °F 66% 29.97 in 10.0 mi Calm Calm - N/A   Clear
5:52 PM 51.1 °F - 44.1 °F 77% 29.98 in 10.0 mi Calm Calm - N/A   Clear
6:52 PM 48.0 °F - 44.1 °F 86% 30.00 in 10.0 mi Calm Calm - N/A   Clear
7:52 PM 46.9 °F - 44.1 °F 90% 30.00 in 10.0 mi Calm Calm - N/A   Clear
8:52 PM 46.9 °F - 44.1 °F 90% 30.02 in 10.0 mi Calm Calm - N/A   Clear
9:52 PM 46.9 °F - 44.1 °F 90% 30.02 in 10.0 mi Calm Calm - N/A   Clear
10:52 PM 46.0 °F - 44.1 °F 93% 30.03 in 10.0 mi Calm Calm - N/A   Clear
11:52 PM 45.0 °F - 43.0 °F 93% 30.03 in 10.0 mi Calm Calm - N/A   Clear